Regional Weather Roundup
Issued by NWS

Home | Current Version | Previous Version | Graphics & Text | Print | Product List | Glossary On
Versions: 1 2 3 4 5 6 7 8 9 10 11 12 13 14 15 16 17 18 19 20 21 22 23 24 25 26 27 28 29 30 31 32 33 34 35 36 37 38 39 40 41 42 43 44 45 46 47 48 49 50
000
ASUS43 KMPX 261101
RWRMN
WEATHER ROUNDUP FOR MINNESOTA
NATIONAL WEATHER SERVICE TWIN CITIES/CHANHASSEN MN
600 AM CDT WED APR 26 2017


NOTE: "FAIR" INDICATES FEW OR NO CLOUDS BELOW 12,000 FEET WITH NO
SIGNIFICANT WEATHER AND/OR OBSTRUCTIONS TO VISIBILITY. N/A MEANS
CURRENT SKY AND/OR WEATHER CONDITIONS ARE NOT AVAILABLE.

MNZ060>063-068>070-261200-
   Twin Cities Metro

CITY           SKY/WX    TMP DP  RH WIND       PRES   REMARKS
TWIN CITIES    LGT RAIN  38  35  89 N17G24    29.48S
ST PAUL        LGT RAIN  38  37  97 N15G21    29.50R
CRYSTAL        LGT RAIN  36  32  85 N14G23    29.49R
BLAINE         LGT RAIN  36  36 100 NE15      29.50S
LAKEVILLE      LGT RAIN  37  37 100 N12G18    29.46S
EDEN PRAIRIE   LGT RAIN  38  34  85 N14G22    29.47R
SOUTH ST PAUL  LGT RAIN  39  39  99 N10       29.47S
LAKE ELMO      LGT RAIN  37  36  93 N9G17     29.49R
$$
MNZ001>005-007-008-013>017-022>024-027-028-261200-
   Northwest Minnesota

CITY           SKY/WX    TMP DP  RH WIND       PRES   REMARKS
BEMIDJI        LGT SNOW  25  23  92 NE14      29.72F WCI  13
HALLOCK        CLOUDY    30  25  80 NE15G21   29.87F WCI  19
ROSEAU         CLOUDY    28  23  80 NE21      29.85F WCI  15
WARROAD        CLOUDY    27  23  86 NE22G32   29.86F WCI  12
THIEF RVR FALL CLOUDY    28  23  81 NE23G29   29.80S WCI  14
CROOKSTON      CLOUDY    30  25  80 NE13G22   29.81S WCI  20
FOSSTON        MIX PCPN  27  25  93 N15       29.74F WCI  15
DETROIT LAKES  FLURRIES  32  30  93 NE7       29.67F WCI  26
MOORHEAD       LGT RAIN  28  27  93 N8        29.73F WCI  20
PARK RAPIDS    MIX PCPN  29  24  82 N10G22    29.66S WCI  20
MAHNOMEN       FLURRIES  28  26  90 NE5       29.71S WCI  23
$$
MNZ006-009>011-018-025>026-261200-
   North Central Minnesota

CITY           SKY/WX    TMP DP  RH WIND       PRES   REMARKS
BAUDETTE       CLOUDY    25  19  78 NE16G26   29.83F WCI  12
FLAG ISLAND    CLOUDY    25  19  80 NE20      29.89S WCI  11
INTL FALLS     LGT SNOW  24  19  81 NE13G21   29.81S WCI  12
WASKISH        FLURRIES  25  21  86 NE13G21   29.79S WCI  13
BIG FORK       LGT SNOW  25  21  86 N8        29.74F WCI  16
LONGVILLE      MIX PCPN  28  27  93 N6        29.65F WCI  22
GRAND RAPIDS   FLURRIES  27  25  92 N15G21    29.68F WCI  15
CRANE LAKE     LGT SNOW  23  21  93 N7        29.80F WCI  15
ORR            LGT SNOW  23  19  86 CALM      29.73F
COOK           LGT SNOW  25  21  86 NE7       29.73F WCI  17
WALKER         FLURRIES  26  24  89 N10G21    29.69F WCI  17
$$
MNZ012-019>021-037-261200-
   Northeast Minnesota

CITY           SKY/WX    TMP DP  RH WIND       PRES   REMARKS
DULUTH         FRZ RAIN  31  29  92 E16G28    29.62F WCI  20
ELY            LGT SNOW  23  21  93 NE7G18    29.72S WCI  15
HIBBING        MIX PCPN  25  23  92 NE13G20   29.67F FOG     WCI  14
EVELETH        LGT SNOW  26  23  87 NE9       29.68F WCI  17
DULUTH HARBOR  MIX PCPN  34  32  93 NE29G35   29.65F WCI  20
TWO HARBORS    LGT SNOW  34  28  80 NE7       29.63F WCI  28
SILVER BAY     LGT RAIN  32  30  93 N7        29.65F WCI  26
GRAND MARAIS     N/A     32  28  85 NE6       29.71F WCI  26
G MARAIS ARPRT LGT SNOW  25  19  80 N6        29.66F WCI  18
$$
MNZ029>031-032-039>041-046>048-054>057-064-261200-
   West Central Minnesota

CITY           SKY/WX    TMP DP  RH WIND       PRES   REMARKS
FERGUS FALLS   MIX PCPN  32  32 100 N8        29.66S WCI  25
WHEATON        CLOUDY    32  30  93 NW16      29.69R WCI  21
MORRIS         CLOUDY    34  32  93 N14       29.62S WCI  24
ALEXANDRIA     CLOUDY    32  30  92 NE14G22   29.61R WCI  22
ELBOW LAKE     CLOUDY    32  32  97 N10       29.64S WCI  24
WADENA         MIX PCPN  30  28  93 N8        29.63S WCI  23
GLENWOOD       MIX PCPN  32  30  93 N18       29.59S WCI  20
APPLETON       CLOUDY    36  34  93 N18       29.62S
BENSON         DRIZZLE   37  30  75 NE10      29.62S
ORTONVILLE     LGT RAIN  32  30  93 N15       29.65R WCI  22
MADISON        CLOUDY    36  36 100 N15G25    29.63S FOG
WILLMAR        CLOUDY    36  36 100 N17       29.58S
$$
MNZ033>034-036-042>043-049>051-058-059-261200-
   Central Minnesota

CITY           SKY/WX    TMP DP  RH WIND       PRES   REMARKS
ST CLOUD       LGT RAIN  36  34  92 N10G18    29.54S
SAUK CENTRE    DRIZZLE   32  31  95 N14       29.58S WCI  22
PAYNESVILLE    RAIN      33  33 100 N12G20    29.57R WCI  24
AITKIN         MIX PCPN  32  28  86 N10       29.60F WCI  24
PINE RIVER     LGT SNOW  28  28 100 N7        29.68F WCI  21
BRAINERD       MIX PCPN  31  29  92 N15G23    29.61S FOG     WCI  20
STAPLES        MIX PCPN  28  28 100 CALM      29.62S
LONG PRAIRIE   CLOUDY    32  30  93 NW13G18   29.59S WCI  22
LITTLE FALLS   MIX PCPN  32  32 100 N6        29.58F WCI  26
LITCHFIELD     LGT RAIN  37  36  93 VRB13     29.53S
BUFFALO        RAIN      36  33  90 N13G18    29.53R
MAPLE LAKE     RAIN      37  35  94 N13G20    29.53S
HUTCHINSON     RAIN      39  38  97 N14       29.52R
$$
MNZ037-044-045-052-053-261200-
   East Central Minnesota

CITY           SKY/WX    TMP DP  RH WIND       PRES   REMARKS
PRINCETON      RAIN      36  34  93 N14G22    29.54S
MORA           MIX PCPN  32  30  93 NE10G20   29.57F WCI  24
CAMBRIDGE      MIX PCPN  36  32  87 N14G22    29.52S
RUSH CITY      LGT RAIN  33  32  96 NE10G17   29.54S WCI  25
MOOSE LAKE     MIX PCPN  32  30  93 NE12G22   29.58F WCI  23
HINCKLEY       MIX PCPN  32  32 100 NE16      29.56S WCI  21
CLOQUET        LGT SNOW  30  28  93 NE10G16   29.62S WCI  21
MCGREGOR       CLOUDY    32  30  93 NE10G18   29.62F WCI  24
$$
MNZ071>073-080-081-089-090-097-098-261200-
   Southwest Minnesota

CITY           SKY/WX    TMP DP  RH WIND       PRES   REMARKS
MONTEVIDEO     DRIZZLE   34  34 100 N14G21    29.60S WCI  24
GRANITE FALLS  CLOUDY    37  35  93 NW13G22   29.60S
CANBY          CLOUDY    35  34  97 N15       29.64R WCI  25
MARSHALL       MIX PCPN  34  33  96 N16       29.61R WCI  24
REDWOOD FALLS  CLOUDY    37  34  89 N13G20    29.55S
OLIVIA         CLOUDY    36  34  93 N14G20    29.54F
PIPESTONE      MIX PCPN  34  30  86 N14G20    29.61  WCI  24
WINDOM         CLOUDY    36  36 100 NW20G26   29.54R
WORTHINGTON    CLOUDY    35  34  96 NW23      29.58R WCI  23
JACKSON        CLOUDY    36  36 100 NW23G31   29.54R
TRACY          LGT RAIN  36  35  98 N18       29.59R
SLAYTON        CLOUDY    34  33  96 NW17G25   29.57R FOG     WCI  23
$$
MNZ065>067-074>077-082>085-091>093-261200-
   South Central Minnesota

CITY           SKY/WX    TMP DP  RH WIND       PRES   REMARKS
MANKATO        RAIN      41  39  93 N16       29.47R
NEW ULM        DRIZZLE   37  36  93 NW17G24   29.51R
ST JAMES       RAIN      37  37 100 NW23      29.51R
FAIRMONT       LGT RAIN  40  39  97 NW24      29.48R
GLENCOE        DRIZZLE   39  39 100 N13G21    29.49R
FARIBAULT      LGT RAIN  43  43 100 N8        29.44S
OWATONNA       LGT RAIN  45  43  93 N10       29.42S
WASECA         DRIZZLE   43  41  93 N15       29.44R
ALBERT LEA     DRIZZLE   48  48 100 N10       29.40R
$$
MNZ078>079-086>088-094>096-261200-
   Southeast Minnesota

CITY           SKY/WX    TMP DP  RH WIND       PRES   REMARKS
ROCHESTER      CLOUDY    52  52 100 N7        29.38F FOG
RED WING       CLOUDY    46  43  87 N8        29.43R
STANTON        DRIZZLE   43  41  91 N18       29.43S
DODGE CENTER   DRIZZLE   48  48 100 NW13      29.39S
WINONA         CLOUDY    54  52  94 CALM      29.37S
AUSTIN         CLOUDY    52  50  93 NW5       29.38S FOG
PRESTON        CLOUDY    52  51  94 CALM      29.38S FOG
$$
ABBREVIATIONS USED IN REMARKS
   TC - TEMPERATURES IN CELSIUS
  WCI - WIND CHILL INDEX
   HX - HEAT INDEX
  VSB - VISIBILITY
$$



USA.gov is the U.S. government's official web portal to all federal, state and local government web resources and services.